Vorticity
6 7 7 7 6 6 5 5 4 4 4 5 5 6 7 6 6 5 6 5 2 9 8 5 19 16 6 13 15 13 12 10 10 9 12 13 10 10 9 8 8 10 12 9 9 7 4 5 7 6 6 5 4 4 4 3 4 6 6 6 6 6 6 5 7 7 8 10 9 9 9 8 9 10 10 11 10 9 9 8 8 8 6 6 8 10
5 6 6 5 5 4 3 3 4 5 5 7 6 6 7 5 6 5 7 7 3 9 8 6 21 19 5 13 16 10 10 11 11 13 12 10 9 10 9 9 11 13 12 9 8 6 3 3 4 4 3 2 2 2 2 3 5 7 7 7 6 6 6 5 6 8 8 9 10 9 9 8 8 10 10 11 10 9 9 9 7 7 8 6 7 10
4 5 5 4 4 3 3 5 6 7 6 5 4 5 5 3 4 5 6 8 6 7 10 8 20 21 5 10 16 9 11 14 13 12 9 9 11 10 10 11 13 13 11 8 7 6 4 3 3 2 1 0 1 1 2 4 6 8 7 7 7 5 5 5 6 8 9 9 10 10 9 9 8 9 10 10 10 10 9 9 8 6 7 8 7 9
3 5 5 3 4 4 5 7 7 7 7 5 3 3 4 3 4 5 4 7 7 9 14 11 19 22 5 8 17 12 13 15 12 10 9 11 12 11 12 13 12 12 10 7 7 7 6 6 6 5 5 4 4 4 4 5 7 7 8 7 7 6 4 5 5 7 10 10 10 11 10 9 9 8 10 11 10 10 10 9 8 6 6 8 8 8
3 4 4 3 5 5 6 7 5 5 6 6 5 3 4 5 6 9 9 11 12 13 13 8 13 20 7 8 20 15 13 14 10 11 12 12 12 11 12 11 10 10 9 7 6 7 7 6 7 7 7 7 6 6 5 6 6 6 8 8 7 7 5 4 5 6 9 11 10 10 11 9 8 9 9 11 10 9 10 10 8 7 5 6 8 9
3 3 3 4 6 5 5 5 4 3 3 4 5 4 5 7 8 11 11 12 14 12 11 6 8 18 12 11 20 16 12 12 10 12 11 9 9 10 10 9 9 8 7 8 7 6 7 6 8 8 8 8 6 6 5 5 6 6 6 8 8 8 7 5 4 6 8 11 12 10 10 10 8 9 9 9 10 10 9 10 9 7 5 6 7 9
4 2 4 5 4 5 4 4 4 3 3 3 3 4 5 7 9 11 10 12 14 10 12 9 6 16 17 13 18 14 10 11 10 10 7 5 7 7 7 8 8 7 6 7 7 7 8 8 8 8 7 7 6 5 5 4 5 6 6 7 8 8 8 7 5 5 7 10 13 11 10 10 9 9 10 9 10 11 10 9 9 8 5 5 7 8
3 3 5 5 4 5 4 4 4 3 4 3 3 5 6 9 10 11 11 12 13 10 12 11 7 15 18 12 14 12 8 11 10 7 5 4 5 5 6 8 6 7 7 6 7 7 7 6 6 6 5 5 5 5 5 5 5 6 7 8 9 9 9 9 6 5 6 10 13 13 11 10 10 9 9 10 10 11 11 9 9 8 6 4 6 8
4 4 5 4 4 4 4 4 3 3 4 3 5 7 7 10 10 9 11 11 11 10 11 12 9 14 15 10 11 11 9 10 8 6 5 3 4 4 5 7 6 6 6 6 6 4 4 4 4 5 4 4 4 5 5 5 6 7 8 9 9 10 10 9 8 6 5 9 12 13 12 11 11 10 9 10 11 11 12 10 9 8 6 4 5 7
5 5 4 4 4 4 4 3 3 3 4 4 7 9 10 11 9 8 10 10 11 9 10 13 13 13 12 8 9 10 9 9 6 5 5 3 3 3 4 6 6 5 4 4 4 4 4 5 4 4 4 4 5 6 7 7 8 8 8 8 8 9 10 10 9 8 6 7 11 13 14 12 11 10 10 10 11 12 12 11 10 9 6 4 5 7
5 5 4 4 4 4 4 3 4 4 4 7 9 9 10 8 7 9 10 9 9 8 9 14 15 13 8 6 7 7 7 7 5 4 4 4 4 3 4 5 4 3 4 4 4 5 5 5 5 5 5 6 7 7 8 7 7 7 6 6 7 7 8 9 9 9 7 6 10 13 15 14 12 10 10 10 10 11 13 12 10 9 7 5 4 5
5 5 4 4 4 4 4 4 5 5 7 10 9 9 9 7 8 10 8 9 9 6 9 13 15 11 5 5 8 5 6 8 5 2 3 5 5 5 6 5 4 4 4 5 6 6 6 6 6 8 7 8 8 7 6 5 5 5 5 5 6 6 6 7 9 9 9 7 8 12 15 15 13 11 10 10 11 11 13 14 11 9 8 6 4 4
5 5 4 4 4 3 4 6 6 8 9 10 10 9 9 8 8 7 7 10 8 6 11 14 14 12 5 5 7 3 5 8 4 2 3 5 6 6 6 5 5 5 5 6 6 5 7 8 8 9 8 7 5 5 4 4 5 5 6 6 5 6 5 5 8 9 9 9 9 11 15 17 14 11 10 10 10 12 13 14 12 10 9 7 5 4
4 4 4 4 4 4 6 7 7 8 9 9 9 7 8 9 8 7 9 10 8 9 13 13 14 13 6 3 5 3 5 5 2 2 4 5 6 5 5 5 5 5 6 6 5 6 7 8 9 8 6 4 3 4 4 5 7 7 7 7 6 6 6 6 8 10 10 9 9 11 13 17 16 12 11 10 10 12 13 15 14 11 9 8 5 3
3 4 4 3 4 6 7 8 8 9 9 8 7 7 9 9 7 9 10 8 8 9 10 13 15 13 6 3 5 4 4 3 1 3 5 5 5 4 4 5 4 5 6 5 5 7 8 7 7 5 4 4 4 5 7 7 8 8 8 7 7 7 7 8 9 11 12 9 9 12 11 15 18 15 11 10 10 11 13 15 15 12 10 9 6 4
3 4 4 5 6 7 8 8 8 9 9 7 7 8 9 8 8 9 7 7 7 6 10 15 15 13 7 5 6 5 3 2 0 3 5 5 5 4 4 4 4 6 5 6 7 7 7 6 5 5 5 6 7 8 8 8 7 8 7 7 8 8 8 10 11 13 13 10 10 13 9 10 17 16 13 11 9 11 14 14 14 14 11 10 7 4
3 3 5 7 7 8 8 9 9 8 8 7 9 10 8 8 9 7 6 8 7 5 10 13 14 16 11 5 6 7 4 1 0 2 4 6 6 5 5 4 4 6 5 6 7 6 7 5 4 7 7 8 9 8 6 7 6 6 7 7 8 9 10 10 13 17 14 9 12 15 9 6 13 17 14 12 10 11 14 14 14 14 13 11 8 5
3 4 8 9 8 8 8 10 9 7 7 8 9 9 8 8 8 8 7 7 7 7 10 11 15 17 11 6 7 6 3 2 2 3 4 7 9 6 5 4 4 5 5 6 8 6 6 6 7 9 9 9 8 6 6 6 6 6 6 7 7 8 10 9 15 21 13 7 15 17 9 4 10 17 16 12 11 12 13 14 14 15 14 11 10 7
4 6 9 10 8 9 10 9 8 7 6 8 10 10 9 8 8 8 7 6 7 8 8 10 14 18 14 8 5 -0 0 3 3 3 5 8 9 7 5 5 4 4 6 7 7 6 6 8 10 10 8 8 5 5 7 5 6 7 5 7 7 7 11 10 16 21 10 7 17 18 10 4 6 17 18 12 12 12 13 14 14 15 15 12 11 8
6 7 10 11 9 9 9 8 7 6 7 9 12 11 8 8 8 6 5 7 8 6 5 5 11 25 21 2 -3 -1 0 3 2 3 8 9 8 6 5 5 6 6 7 7 6 8 9 9 10 8 7 7 5 5 6 5 7 6 5 8 6 8 12 9 15 20 8 8 19 20 12 3 6 19 18 10 13 14 13 14 15 15 15 13 11 9
7 8 11 12 10 9 10 8 6 7 8 9 12 11 8 8 6 5 6 9 7 6 6 -1 3 22 15 -9 -5 6 2 1 3 6 10 8 6 5 4 5 7 7 7 7 8 10 10 9 8 7 7 6 6 6 5 6 7 6 7 8 6 10 12 9 15 18 12 14 21 21 13 1 6 20 16 8 12 14 14 15 15 16 15 14 12 10
8 9 11 12 10 9 9 8 7 8 8 9 11 11 8 7 6 4 5 8 8 6 6 -0 -2 8 4 -6 1 6 1 1 5 9 9 7 6 5 4 4 6 7 7 8 10 10 9 9 7 7 7 6 7 6 6 7 7 7 7 6 9 12 10 12 16 17 19 21 18 18 12 2 8 17 12 9 11 13 15 15 16 18 15 14 13 10
9 9 11 11 9 8 9 7 8 9 8 8 11 10 8 8 8 4 3 5 6 6 7 2 -5 -5 -3 -1 3 2 2 4 6 9 9 6 6 5 3 5 5 7 8 9 10 9 8 7 7 7 7 7 7 6 6 7 6 7 7 7 11 12 12 17 16 18 25 21 14 16 9 5 14 13 8 11 11 10 14 16 17 18 17 14 13 12
10 10 10 8 6 7 8 7 8 8 7 9 11 10 10 10 7 4 4 3 3 7 4 -5 -7 -4 -3 1 4 2 3 6 7 9 8 6 7 4 2 5 7 9 9 9 9 7 6 6 6 7 7 6 6 5 7 8 7 7 7 9 12 13 16 18 16 21 23 18 19 15 7 14 19 7 4 12 12 8 9 15 19 18 17 16 13 12
10 10 9 6 5 6 7 8 8 8 9 11 12 10 11 10 6 4 5 3 3 6 2 -8 -6 2 4 4 4 2 4 7 8 7 7 6 6 4 5 7 9 10 9 9 8 6 6 6 6 7 6 6 6 6 8 8 7 7 7 10 12 14 17 17 19 21 16 20 27 15 12 22 11 -3 7 16 15 10 6 11 19 19 18 17 14 13
10 9 7 6 6 8 10 10 9 9 10 12 12 11 10 9 6 3 3 4 3 2 2 1 -0 3 9 9 4 4 7 7 6 7 6 5 4 3 6 8 10 11 10 9 8 6 7 7 6 6 5 5 6 8 9 8 7 7 8 11 12 13 16 17 18 19 18 27 26 12 14 15 1 6 20 17 15 12 4 8 16 18 20 18 14 13
7 7 7 5 6 10 12 11 8 9 12 11 10 10 8 7 6 5 5 5 3 -3 1 8 2 -2 7 10 4 6 8 5 6 7 4 4 4 3 5 9 11 10 9 8 7 7 7 5 4 4 4 6 7 8 9 7 8 8 8 11 12 12 16 18 16 16 20 25 24 20 20 8 4 18 19 12 19 14 4 9 13 16 22 20 16 13
5 7 8 5 7 12 12 10 10 10 11 10 8 8 8 6 6 7 5 3 1 -2 0 7 3 -2 4 8 5 5 5 5 7 5 4 8 8 6 8 11 11 9 7 6 5 6 6 4 4 5 4 6 7 8 9 8 8 8 8 11 12 12 16 17 15 14 15 23 29 28 19 5 6 15 11 11 18 12 10 12 9 15 24 20 18 15
5 8 8 6 10 15 13 10 11 10 9 9 9 8 7 6 5 4 3 2 2 2 3 5 4 4 7 6 4 5 6 6 5 4 8 11 8 8 11 12 10 8 7 6 5 5 4 4 5 6 5 6 7 7 8 8 8 8 8 9 10 13 16 16 15 12 12 24 32 24 17 16 14 10 8 10 9 10 18 13 4 14 23 20 20 16
7 9 8 8 13 17 14 10 10 9 8 9 9 7 6 4 3 3 4 3 3 6 6 3 3 9 11 4 2 7 8 4 4 7 10 9 7 9 12 11 10 8 6 5 5 4 4 5 5 6 6 6 7 8 9 9 8 7 8 8 9 13 17 15 15 12 11 25 35 24 17 22 18 7 7 10 9 15 20 11 5 11 18 22 22 15
8 10 9 10 13 14 11 9 9 9 8 7 7 6 5 4 4 5 5 6 6 6 5 3 4 9 9 3 4 8 5 3 7 10 10 9 9 10 11 10 8 6 4 4 4 3 4 4 4 5 6 6 7 8 9 8 8 8 6 6 8 13 16 17 16 14 11 21 34 29 13 13 18 12 7 9 12 18 18 11 6 7 13 21 23 17
10 11 10 10 11 10 9 8 8 7 6 7 7 6 5 5 6 6 7 8 7 5 4 5 7 7 5 5 6 5 4 6 8 10 10 10 10 10 9 8 5 4 4 4 4 4 5 6 7 7 6 6 8 8 9 8 8 8 6 5 7 10 14 18 18 16 13 13 27 36 18 8 16 13 5 10 16 16 17 13 6 4 11 19 21 20
11 10 9 8 8 8 7 7 7 6 6 7 5 4 5 5 6 8 8 8 7 4 5 7 8 7 6 5 3 2 6 9 9 11 12 12 11 10 7 4 1 2 3 4 4 4 6 8 8 7 6 8 9 8 9 9 7 7 6 4 5 7 12 19 18 16 15 10 23 43 30 8 9 9 5 12 16 14 16 14 8 5 7 14 21 21
10 8 7 7 7 6 6 6 7 8 8 6 4 5 6 5 6 7 7 10 9 5 7 9 8 6 4 3 4 6 9 10 11 14 14 11 9 7 4 2 2 3 4 4 5 5 7 8 7 6 7 8 9 8 9 9 6 6 6 3 3 5 9 18 19 16 15 12 24 46 35 9 6 9 8 14 15 14 16 13 8 6 6 11 18 20
8 6 6 6 6 7 7 7 7 7 7 6 5 6 6 6 5 3 7 14 11 3 5 8 5 3 3 5 8 8 7 8 12 15 11 7 4 2 0 2 3 4 5 5 5 6 7 8 6 6 7 8 9 9 9 8 6 6 7 3 2 3 6 14 19 18 17 16 26 42 32 9 6 12 14 20 20 15 13 11 8 8 7 9 15 19
6 6 6 7 7 7 7 7 8 7 5 5 5 5 5 5 4 2 6 12 8 1 4 6 3 4 7 8 7 7 7 8 10 12 8 2 1 1 2 4 5 6 6 6 7 8 8 8 7 8 10 10 11 10 8 8 7 6 7 5 2 2 5 10 16 20 21 17 22 37 31 13 14 19 12 9 15 17 15 12 13 11 7 7 12 17
6 6 6 6 6 6 6 6 6 6 6 6 4 4 5 5 5 2 3 7 7 5 6 6 5 8 8 6 6 7 7 5 6 9 4 -0 2 3 4 6 6 6 6 6 7 7 6 6 7 7 9 9 9 9 8 8 8 7 7 5 3 2 3 6 13 22 25 17 16 33 34 14 7 12 7 -2 1 13 18 14 14 13 9 7 10 16
5 5 5 5 6 6 7 7 7 7 7 5 5 6 6 4 4 1 2 8 11 10 9 8 8 8 6 6 8 8 6 2 2 8 6 3 5 6 5 6 5 4 5 5 5 5 4 6 6 7 8 9 8 9 9 8 8 9 8 5 4 4 2 3 11 21 26 19 14 27 37 21 -3 -8 4 7 1 5 15 15 14 14 10 6 8 14
5 6 7 7 7 7 7 8 9 10 9 6 6 7 5 3 4 3 5 10 11 10 9 7 6 6 7 9 8 6 4 1 1 7 8 6 7 8 6 6 5 5 6 5 5 5 6 7 8 8 8 9 9 9 9 9 9 9 8 6 6 7 4 2 8 19 26 23 15 19 33 35 13 -10 -8 5 6 7 14 15 14 15 11 6 7 12
6 7 8 8 8 9 8 8 9 10 7 5 6 6 3 4 7 7 9 12 11 7 4 3 5 8 8 6 4 3 4 4 3 5 7 7 7 7 6 5 5 6 6 6 6 8 8 8 9 9 9 9 10 10 10 11 11 9 7 7 8 9 8 4 3 15 27 26 18 18 24 33 32 15 3 6 8 11 16 15 14 16 12 6 6 11
6 6 8 9 9 9 8 8 9 8 5 5 7 5 3 6 10 11 11 11 9 7 6 6 8 8 5 2 3 4 5 6 4 4 5 6 4 3 4 4 4 5 5 6 7 8 8 9 9 10 11 11 11 12 11 11 11 9 6 7 9 10 11 7 2 11 28 28 19 19 23 24 26 25 20 14 5 6 16 18 16 16 12 6 6 10
7 8 9 10 8 7 7 7 6 5 5 6 6 6 9 12 13 12 8 5 7 9 9 7 7 6 3 3 4 4 4 5 5 3 3 3 2 3 5 5 5 6 6 7 8 8 8 10 11 11 12 12 12 12 11 11 11 10 7 7 10 11 12 11 4 8 27 32 20 18 25 24 18 17 19 11 -2 0 17 21 17 17 13 6 5 9
9 10 10 8 6 5 5 6 5 5 7 9 9 12 14 13 11 11 8 7 9 8 5 3 5 6 5 3 2 2 3 3 2 2 3 4 5 5 5 5 6 7 8 9 11 12 12 13 13 13 12 13 13 12 13 13 11 10 8 8 11 12 12 13 7 8 25 33 23 20 27 26 18 16 17 9 -1 3 17 20 18 18 13 6 5 8
10 8 6 4 4 5 6 7 6 6 11 15 16 16 12 9 10 12 9 7 7 6 4 2 2 4 5 3 1 1 2 3 3 4 4 3 4 5 7 10 13 14 16 18 17 17 17 15 15 15 13 14 15 14 15 15 13 12 11 10 12 13 13 13 9 11 26 33 26 25 26 17 11 15 15 11 9 13 18 18 18 19 13 7 5 8
7 5 5 4 5 8 9 8 7 10 17 19 15 12 11 10 9 7 4 4 5 4 3 1 0 3 4 3 2 2 3 4 3 2 4 7 12 18 21 22 22 20 21 22 20 19 19 18 17 17 16 17 18 17 17 16 14 14 12 11 13 13 14 15 11 12 27 33 27 24 18 7 9 19 19 16 19 20 18 17 19 18 12 6 5 8
4 4 5 5 7 10 11 10 10 13 15 11 6 7 9 7 4 3 3 3 2 2 2 2 1 2 3 4 5 3 2 3 6 11 19 23 25 25 21 18 18 18 19 20 21 23 23 23 23 22 22 22 21 20 18 16 16 16 14 13 15 14 14 16 13 16 29 32 25 22 14 3 12 26 25 20 21 18 16 17 18 16 12 6 5 8
5 5 7 8 9 12 13 10 9 11 12 9 5 4 4 1 2 3 1 0 1 3 3 3 3 4 4 3 3 3 8 16 23 26 26 21 16 14 14 16 19 21 23 26 28 30 30 29 27 25 24 24 23 21 19 18 17 18 15 15 17 15 15 17 15 20 31 30 23 23 14 3 13 26 23 17 17 15 15 17 16 14 10 6 4 8
6 7 9 10 11 13 13 9 7 11 12 9 4 3 1 0 1 2 1 3 4 4 4 5 5 3 1 3 10 20 26 28 25 19 13 11 12 15 20 24 25 27 31 33 35 36 36 35 33 29 26 24 22 22 21 20 19 19 19 19 17 15 17 18 17 24 32 27 23 25 16 6 11 17 11 9 12 14 14 15 14 13 10 6 4 7
9 11 11 11 11 12 10 5 4 6 4 -2 -5 -2 1 2 3 6 6 5 5 4 4 4 2 3 10 20 28 30 23 15 11 10 10 13 17 21 24 27 29 33 36 36 35 36 37 37 38 38 35 31 29 26 24 23 23 22 21 19 16 17 20 18 20 30 30 22 24 27 17 10 13 10 4 6 10 11 12 13 13 12 10 6 5 7
13 12 9 8 9 9 7 4 5 7 6 3 1 3 5 5 6 7 5 4 5 4 1 1 7 17 28 30 24 15 9 8 9 12 15 17 21 25 29 32 35 37 37 35 34 33 34 36 39 40 39 38 37 34 31 30 28 24 21 18 17 20 20 16 23 34 26 15 24 28 13 9 15 11 7 10 10 8 12 13 12 12 10 6 5 7
13 10 7 8 10 11 9 7 6 6 7 7 7 6 7 7 6 5 4 4 2 2 5 13 23 29 26 18 10 7 9 12 15 17 20 21 24 29 33 35 37 38 35 33 32 30 31 38 42 40 37 35 35 33 31 30 26 20 17 18 18 20 18 16 27 34 20 8 20 26 12 5 11 9 6 7 8 10 17 18 13 11 10 7 5 7
Height
5817 5815 5813 5811 5808 5806 5804 5802 5800 5797 5795 5793 5790 5787 5784 5781 5778 5775 5771 5768 5764 5761 5757 5752 5748 5745 5742 5737 5733 5731 5727 5723 5720 5717 5714 5711 5708 5705 5702 5699 5696 5692 5689 5686 5682 5679 5676 5672 5668 5664 5660 5656 5652 5647 5643 5638 5634 5629 5625 5619 5614 5608 5602 5597 5591 5585 5579 5573 5567 5561 5555 5550 5544 5538 5532 5527 5522 5517 5512 5507 5501 5496 5490 5484 5478 5472
5816 5813 5811 5809 5807 5805 5802 5800 5798 5795 5792 5790 5787 5784 5781 5778 5775 5772 5768 5764 5760 5757 5754 5749 5745 5740 5736 5733 5730 5726 5723 5720 5716 5713 5711 5708 5705 5702 5698 5695 5692 5689 5685 5682 5678 5675 5672 5668 5664 5660 5656 5651 5647 5642 5638 5633 5629 5624 5619 5614 5608 5602 5597 5592 5586 5580 5574 5568 5562 5556 5550 5544 5538 5533 5527 5521 5516 5512 5507 5502 5497 5491 5486 5480 5474 5468
5814 5812 5809 5807 5805 5803 5800 5798 5795 5792 5789 5787 5784 5781 5778 5775 5772 5768 5764 5760 5756 5753 5750 5746 5742 5737 5732 5729 5726 5722 5719 5716 5713 5710 5707 5704 5701 5698 5695 5691 5688 5685 5682 5678 5674 5671 5668 5664 5659 5655 5651 5647 5642 5638 5633 5628 5624 5619 5614 5609 5603 5597 5592 5586 5581 5575 5569 5563 5557 5551 5545 5539 5533 5527 5522 5516 5510 5506 5501 5496 5492 5486 5481 5475 5469 5463
5812 5810 5808 5805 5803 5800 5798 5795 5792 5789 5786 5783 5780 5777 5774 5771 5767 5764 5760 5756 5751 5748 5745 5743 5739 5734 5729 5726 5723 5719 5715 5712 5709 5706 5704 5701 5698 5695 5691 5688 5684 5681 5678 5674 5670 5667 5663 5659 5655 5651 5647 5643 5638 5633 5628 5623 5619 5614 5609 5604 5598 5592 5587 5581 5575 5570 5564 5557 5552 5546 5540 5534 5528 5522 5516 5511 5505 5500 5495 5491 5486 5482 5476 5471 5465 5460
5810 5808 5805 5803 5800 5798 5795 5792 5790 5787 5783 5780 5777 5774 5771 5767 5763 5759 5756 5753 5748 5744 5740 5737 5736 5732 5726 5722 5719 5715 5712 5710 5706 5703 5700 5697 5694 5691 5688 5684 5680 5677 5673 5670 5666 5662 5659 5655 5651 5647 5643 5638 5634 5628 5624 5619 5614 5609 5603 5598 5592 5587 5581 5576 5570 5564 5558 5552 5546 5540 5534 5528 5523 5517 5511 5505 5500 5495 5490 5486 5481 5477 5472 5467 5462 5456
5808 5805 5803 5800 5798 5795 5792 5790 5787 5784 5781 5777 5774 5771 5767 5764 5760 5755 5752 5748 5745 5740 5735 5731 5730 5729 5723 5718 5716 5712 5709 5706 5703 5700 5697 5694 5691 5687 5684 5680 5676 5673 5669 5666 5662 5658 5654 5650 5647 5643 5638 5634 5629 5624 5619 5614 5608 5603 5597 5592 5586 5581 5576 5570 5564 5558 5552 5546 5540 5534 5528 5522 5516 5510 5505 5500 5495 5490 5485 5481 5476 5472 5467 5463 5458 5453
5805 5803 5801 5798 5795 5792 5789 5787 5784 5780 5778 5775 5771 5768 5764 5760 5756 5752 5748 5744 5740 5736 5732 5727 5724 5724 5721 5715 5712 5710 5706 5703 5700 5696 5694 5690 5687 5683 5680 5676 5672 5669 5665 5661 5657 5653 5650 5646 5642 5638 5633 5629 5624 5619 5614 5608 5603 5597 5592 5586 5581 5575 5570 5564 5559 5553 5547 5541 5534 5528 5522 5516 5510 5504 5499 5494 5489 5485 5480 5476 5471 5467 5463 5458 5453 5449
5803 5800 5798 5795 5792 5789 5786 5784 5781 5778 5774 5771 5768 5764 5760 5756 5752 5748 5744 5739 5736 5732 5729 5725 5721 5719 5717 5713 5710 5707 5704 5701 5697 5693 5690 5687 5683 5679 5676 5672 5668 5665 5661 5657 5653 5649 5645 5641 5638 5633 5628 5623 5619 5614 5609 5603 5597 5592 5586 5580 5575 5570 5564 5559 5553 5547 5541 5536 5529 5522 5516 5510 5504 5499 5493 5488 5484 5479 5475 5471 5466 5462 5458 5454 5449 5445
5801 5798 5795 5792 5789 5787 5784 5781 5778 5775 5771 5768 5764 5761 5757 5753 5749 5745 5740 5736 5733 5729 5726 5722 5718 5714 5712 5709 5706 5704 5701 5698 5695 5690 5686 5682 5679 5675 5672 5668 5664 5661 5657 5653 5649 5645 5641 5637 5632 5628 5623 5618 5613 5608 5603 5597 5591 5586 5580 5575 5569 5564 5559 5553 5547 5541 5535 5530 5524 5517 5511 5505 5499 5493 5488 5483 5478 5474 5470 5466 5462 5458 5454 5450 5445 5441
5798 5795 5792 5790 5787 5784 5781 5778 5775 5771 5768 5764 5760 5757 5753 5749 5746 5741 5737 5733 5730 5727 5723 5719 5714 5710 5708 5705 5702 5699 5696 5693 5690 5687 5683 5679 5675 5671 5667 5664 5660 5656 5653 5649 5645 5641 5636 5632 5627 5622 5617 5612 5607 5602 5597 5592 5586 5580 5575 5569 5564 5558 5553 5547 5541 5535 5529 5524 5519 5513 5506 5500 5494 5488 5483 5478 5473 5468 5464 5460 5457 5453 5449 5445 5441 5437
5795 5793 5790 5787 5784 5781 5778 5775 5772 5768 5764 5761 5757 5753 5749 5746 5742 5738 5734 5730 5727 5724 5720 5716 5711 5706 5704 5701 5698 5694 5691 5688 5685 5682 5679 5676 5672 5668 5663 5660 5656 5652 5648 5644 5640 5636 5631 5626 5621 5617 5612 5607 5602 5597 5592 5586 5581 5575 5569 5563 5558 5552 5546 5541 5535 5530 5524 5518 5513 5508 5502 5496 5490 5484 5478 5473 5468 5463 5459 5455 5452 5448 5444 5440 5437 5433
5792 5790 5787 5784 5781 5778 5775 5772 5769 5765 5761 5757 5753 5750 5746 5742 5739 5735 5731 5727 5724 5720 5717 5713 5708 5704 5700 5697 5694 5690 5687 5685 5682 5678 5675 5672 5669 5665 5660 5656 5652 5648 5644 5640 5635 5631 5626 5621 5616 5612 5607 5602 5597 5592 5587 5581 5575 5569 5564 5558 5552 5546 5540 5535 5529 5524 5518 5512 5507 5502 5497 5490 5485 5479 5473 5468 5463 5458 5453 5450 5446 5443 5439 5435 5432 5428
5790 5787 5784 5781 5778 5775 5772 5768 5765 5762 5758 5754 5749 5745 5741 5738 5735 5731 5727 5723 5720 5717 5714 5710 5706 5702 5698 5695 5691 5688 5685 5682 5679 5675 5671 5668 5664 5661 5656 5652 5648 5644 5639 5635 5631 5626 5621 5617 5612 5607 5602 5597 5592 5586 5581 5575 5570 5564 5558 5552 5546 5540 5534 5529 5523 5517 5512 5506 5501 5496 5491 5485 5479 5474 5468 5463 5458 5453 5448 5444 5441 5437 5434 5430 5427 5423
5787 5784 5781 5778 5775 5772 5769 5765 5762 5758 5754 5750 5746 5741 5737 5733 5729 5726 5722 5718 5716 5715 5712 5707 5703 5699 5695 5692 5689 5685 5682 5680 5677 5673 5669 5664 5660 5656 5652 5647 5643 5639 5634 5630 5625 5621 5616 5611 5607 5602 5596 5591 5586 5580 5575 5569 5563 5558 5552 5546 5540 5534 5528 5522 5517 5511 5506 5500 5495 5490 5485 5480 5474 5468 5463 5457 5452 5447 5443 5439 5435 5431 5428 5425 5422 5418
5784 5781 5778 5775 5772 5768 5765 5762 5758 5754 5750 5746 5742 5738 5734 5730 5726 5721 5717 5713 5710 5710 5710 5706 5702 5698 5693 5690 5687 5683 5680 5678 5674 5670 5666 5660 5655 5650 5647 5642 5638 5634 5630 5625 5620 5616 5611 5606 5601 5596 5591 5586 5580 5574 5568 5563 5557 5552 5546 5540 5534 5528 5522 5516 5511 5505 5499 5494 5489 5483 5478 5474 5468 5462 5457 5452 5447 5442 5438 5433 5429 5426 5422 5419 5416 5413
5781 5778 5775 5772 5768 5765 5761 5758 5754 5750 5746 5743 5739 5735 5731 5727 5723 5718 5714 5710 5706 5704 5705 5703 5699 5696 5691 5687 5685 5681 5678 5675 5670 5666 5662 5656 5651 5646 5641 5637 5633 5629 5624 5620 5615 5610 5606 5600 5595 5590 5585 5580 5574 5568 5563 5557 5551 5546 5540 5534 5528 5522 5516 5510 5505 5499 5493 5488 5482 5477 5472 5467 5463 5457 5452 5446 5441 5436 5432 5428 5424 5420 5416 5413 5410 5407
5777 5775 5772 5769 5765 5761 5758 5754 5751 5747 5743 5739 5735 5731 5727 5724 5720 5716 5711 5708 5703 5699 5700 5699 5696 5693 5688 5683 5681 5677 5674 5671 5666 5663 5659 5653 5648 5642 5637 5633 5628 5624 5619 5614 5609 5604 5600 5595 5589 5584 5579 5573 5568 5562 5557 5551 5545 5539 5533 5527 5521 5515 5509 5503 5498 5492 5486 5481 5476 5470 5465 5461 5456 5452 5446 5440 5435 5430 5426 5422 5418 5414 5411 5407 5405 5402
5774 5772 5769 5766 5761 5758 5754 5751 5748 5744 5739 5736 5732 5728 5724 5720 5717 5713 5708 5704 5699 5693 5693 5694 5693 5689 5684 5678 5676 5673 5670 5666 5663 5659 5655 5650 5645 5639 5634 5629 5624 5619 5614 5609 5604 5599 5594 5589 5584 5578 5573 5568 5562 5556 5551 5545 5538 5533 5526 5520 5514 5508 5502 5495 5490 5485 5480 5474 5469 5464 5459 5454 5450 5445 5440 5435 5429 5424 5420 5416 5412 5408 5405 5402 5399 5396
5770 5768 5766 5763 5758 5754 5751 5747 5744 5740 5736 5733 5729 5724 5720 5716 5713 5710 5706 5701 5696 5689 5686 5687 5689 5688 5681 5674 5671 5669 5665 5662 5659 5655 5650 5646 5640 5635 5629 5624 5619 5614 5610 5605 5600 5594 5589 5583 5578 5572 5567 5562 5557 5551 5545 5538 5532 5526 5519 5513 5507 5501 5494 5488 5482 5477 5473 5468 5462 5457 5452 5448 5443 5439 5434 5428 5423 5418 5414 5410 5406 5402 5399 5396 5393 5390
5766 5763 5762 5759 5755 5751 5748 5744 5740 5737 5733 5730 5726 5721 5717 5714 5709 5706 5703 5699 5694 5688 5682 5680 5683 5687 5680 5670 5666 5664 5660 5657 5655 5650 5646 5640 5635 5630 5624 5619 5615 5610 5605 5600 5594 5589 5583 5578 5572 5567 5561 5556 5551 5545 5538 5532 5525 5519 5513 5507 5500 5494 5487 5480 5474 5469 5465 5460 5456 5451 5446 5441 5437 5432 5427 5422 5417 5412 5408 5404 5400 5396 5393 5390 5388 5385
5762 5759 5757 5755 5752 5747 5744 5741 5736 5733 5730 5726 5723 5718 5714 5710 5705 5701 5699 5697 5693 5687 5681 5675 5676 5684 5680 5666 5662 5660 5654 5652 5650 5646 5641 5635 5630 5626 5620 5614 5610 5606 5601 5595 5589 5583 5577 5572 5567 5561 5556 5550 5544 5538 5531 5525 5519 5513 5507 5500 5494 5487 5480 5473 5466 5461 5457 5453 5449 5444 5439 5434 5430 5426 5421 5416 5411 5407 5402 5398 5394 5391 5387 5385 5382 5379
5758 5755 5753 5751 5748 5744 5741 5737 5733 5730 5727 5723 5720 5716 5712 5707 5702 5697 5694 5693 5690 5685 5681 5672 5670 5680 5678 5664 5659 5656 5649 5646 5644 5641 5637 5631 5625 5620 5615 5610 5605 5600 5595 5589 5583 5577 5571 5567 5561 5556 5550 5543 5537 5530 5524 5518 5512 5506 5500 5494 5487 5480 5473 5466 5459 5454 5449 5445 5441 5436 5432 5427 5423 5419 5414 5410 5405 5401 5397 5393 5388 5385 5382 5379 5376 5373
5754 5752 5750 5747 5744 5741 5738 5733 5729 5726 5723 5720 5717 5713 5709 5705 5700 5695 5690 5688 5685 5682 5679 5669 5663 5672 5674 5662 5656 5652 5644 5641 5639 5636 5632 5626 5620 5615 5609 5605 5600 5594 5589 5583 5577 5572 5566 5561 5555 5549 5543 5536 5529 5523 5517 5512 5506 5500 5494 5487 5480 5474 5466 5459 5453 5447 5441 5437 5432 5428 5424 5420 5416 5412 5408 5404 5400 5395 5391 5387 5383 5379 5376 5373 5370 5368
5751 5748 5746 5743 5741 5738 5735 5730 5726 5723 5720 5717 5714 5710 5705 5701 5697 5692 5687 5683 5680 5678 5676 5666 5657 5663 5666 5658 5652 5647 5639 5636 5634 5631 5626 5620 5616 5611 5604 5599 5594 5589 5584 5578 5572 5566 5560 5554 5548 5542 5535 5528 5523 5517 5511 5505 5499 5494 5487 5480 5473 5466 5459 5452 5445 5439 5434 5429 5424 5420 5415 5412 5408 5405 5401 5397 5393 5389 5385 5381 5377 5373 5370 5367 5364 5362
5747 5745 5741 5738 5736 5734 5730 5727 5723 5720 5716 5713 5711 5706 5702 5698 5693 5688 5684 5680 5676 5673 5671 5664 5654 5655 5658 5654 5647 5642 5636 5633 5631 5627 5622 5614 5609 5605 5599 5594 5589 5583 5578 5573 5567 5561 5555 5548 5542 5535 5529 5523 5517 5511 5505 5499 5493 5487 5480 5473 5466 5459 5452 5445 5438 5432 5426 5421 5416 5412 5408 5404 5400 5397 5394 5390 5387 5383 5379 5375 5371 5368 5364 5361 5359 5356
5744 5742 5738 5734 5731 5728 5723 5720 5717 5715 5712 5710 5707 5703 5699 5694 5689 5685 5681 5677 5672 5667 5664 5661 5652 5648 5652 5649 5641 5636 5632 5628 5626 5623 5618 5610 5603 5597 5592 5587 5582 5576 5570 5565 5560 5554 5548 5542 5536 5530 5524 5517 5511 5505 5499 5493 5487 5480 5473 5466 5459 5452 5445 5438 5431 5425 5419 5413 5409 5404 5400 5396 5393 5389 5386 5383 5379 5376 5373 5369 5365 5362 5358 5355 5353 5351
5740 5739 5736 5732 5729 5725 5720 5717 5713 5709 5708 5705 5702 5698 5694 5689 5685 5682 5679 5675 5669 5661 5658 5659 5650 5642 5646 5644 5635 5631 5628 5623 5619 5616 5612 5606 5598 5591 5586 5580 5575 5569 5563 5558 5552 5547 5542 5536 5530 5524 5517 5511 5505 5499 5493 5486 5480 5473 5467 5459 5452 5445 5437 5431 5424 5418 5412 5406 5401 5396 5392 5389 5385 5381 5378 5375 5372 5369 5366 5363 5359 5356 5353 5350 5347 5345
5736 5735 5733 5730 5728 5724 5719 5716 5711 5706 5705 5702 5698 5694 5689 5685 5681 5679 5676 5672 5667 5658 5654 5655 5647 5638 5640 5638 5629 5625 5622 5617 5614 5610 5604 5598 5590 5585 5580 5575 5570 5565 5559 5553 5546 5539 5534 5528 5523 5517 5511 5504 5498 5492 5486 5480 5473 5467 5460 5453 5445 5438 5430 5423 5417 5411 5404 5398 5393 5388 5384 5381 5378 5374 5371 5368 5366 5363 5360 5356 5353 5350 5347 5344 5341 5339
5732 5731 5729 5726 5726 5722 5716 5713 5709 5705 5702 5700 5696 5690 5685 5682 5678 5675 5673 5669 5664 5656 5650 5648 5643 5637 5635 5631 5624 5620 5615 5609 5606 5603 5597 5590 5582 5578 5574 5569 5564 5558 5552 5546 5540 5534 5527 5521 5515 5509 5503 5497 5490 5485 5479 5473 5466 5459 5453 5446 5438 5431 5423 5416 5410 5403 5397 5391 5385 5381 5377 5373 5370 5367 5364 5361 5359 5356 5353 5350 5347 5344 5341 5338 5336 5334
5728 5726 5724 5722 5723 5721 5715 5710 5707 5703 5700 5698 5694 5687 5683 5679 5675 5671 5668 5666 5660 5653 5648 5643 5639 5636 5631 5623 5618 5614 5609 5603 5599 5596 5592 5585 5576 5571 5567 5562 5557 5550 5544 5538 5532 5527 5520 5513 5507 5501 5495 5489 5483 5477 5471 5466 5459 5452 5445 5438 5430 5423 5416 5409 5403 5396 5390 5384 5378 5373 5370 5366 5363 5360 5357 5354 5352 5349 5346 5344 5341 5338 5335 5333 5330 5328
5724 5722 5720 5717 5718 5718 5713 5708 5705 5701 5697 5695 5690 5685 5680 5676 5671 5667 5664 5662 5657 5650 5644 5638 5633 5631 5628 5619 5613 5608 5601 5596 5592 5589 5586 5581 5572 5564 5558 5554 5548 5542 5537 5531 5524 5518 5512 5506 5499 5493 5487 5481 5475 5469 5463 5457 5452 5445 5437 5430 5423 5416 5409 5402 5395 5389 5382 5376 5371 5367 5363 5359 5356 5353 5350 5347 5345 5342 5340 5337 5335 5332 5330 5327 5324 5322
5721 5718 5716 5712 5712 5713 5710 5705 5703 5699 5694 5690 5685 5680 5676 5672 5667 5663 5659 5657 5653 5645 5639 5634 5628 5625 5621 5615 5610 5605 5598 5590 5585 5582 5577 5572 5565 5558 5549 5543 5539 5533 5528 5522 5515 5509 5504 5498 5492 5486 5479 5473 5467 5462 5455 5449 5444 5437 5430 5423 5415 5408 5402 5395 5388 5382 5375 5369 5364 5359 5356 5353 5349 5345 5343 5340 5338 5336 5333 5331 5329 5326 5324 5321 5319 5317
5718 5715 5712 5708 5707 5708 5706 5701 5698 5695 5691 5686 5680 5675 5672 5668 5663 5658 5655 5652 5647 5639 5632 5628 5624 5619 5615 5610 5606 5602 5596 5588 5581 5575 5568 5560 5555 5551 5545 5536 5530 5524 5518 5512 5506 5500 5494 5489 5483 5477 5470 5463 5458 5452 5446 5440 5434 5428 5422 5415 5408 5401 5394 5387 5381 5374 5368 5362 5357 5352 5349 5346 5342 5338 5336 5333 5331 5329 5327 5325 5323 5320 5318 5316 5313 5311
5716 5712 5709 5705 5702 5702 5701 5697 5693 5691 5687 5681 5676 5671 5667 5663 5658 5653 5650 5647 5642 5634 5628 5623 5619 5614 5610 5604 5598 5593 5588 5582 5575 5570 5563 5552 5544 5541 5537 5531 5523 5516 5509 5503 5497 5491 5485 5479 5474 5468 5462 5455 5449 5443 5438 5431 5425 5420 5414 5407 5401 5394 5387 5380 5373 5367 5361 5355 5350 5345 5342 5339 5336 5332 5329 5327 5325 5323 5320 5318 5317 5314 5312 5310 5308 5305
5713 5709 5706 5702 5698 5696 5695 5691 5688 5686 5682 5676 5670 5666 5662 5658 5653 5649 5645 5643 5638 5630 5625 5620 5614 5608 5603 5597 5590 5584 5579 5575 5570 5564 5557 5548 5539 5531 5525 5520 5514 5507 5501 5495 5489 5483 5477 5471 5465 5460 5454 5448 5441 5435 5430 5424 5417 5411 5405 5399 5393 5387 5379 5372 5366 5359 5353 5348 5342 5338 5335 5332 5329 5326 5322 5320 5318 5316 5314 5312 5310 5308 5307 5305 5302 5300
5710 5706 5703 5699 5695 5692 5689 5686 5683 5680 5677 5671 5665 5662 5658 5653 5648 5643 5641 5640 5634 5625 5620 5614 5608 5601 5595 5589 5583 5576 5571 5568 5566 5560 5550 5540 5534 5526 5516 5509 5503 5498 5492 5484 5478 5472 5466 5460 5454 5448 5443 5437 5431 5424 5419 5414 5408 5402 5397 5391 5385 5379 5372 5365 5358 5352 5346 5341 5335 5331 5328 5325 5322 5319 5316 5314 5311 5309 5307 5306 5304 5302 5300 5299 5296 5294
5707 5704 5700 5696 5692 5688 5684 5681 5678 5675 5672 5666 5661 5657 5652 5647 5643 5636 5633 5633 5628 5620 5613 5607 5600 5594 5588 5582 5576 5569 5562 5558 5558 5556 5545 5532 5524 5518 5510 5502 5494 5486 5480 5474 5467 5462 5456 5450 5444 5437 5431 5425 5420 5414 5408 5403 5398 5393 5388 5382 5376 5371 5364 5357 5351 5345 5339 5333 5328 5323 5321 5318 5316 5313 5310 5307 5305 5303 5301 5299 5297 5296 5295 5293 5291 5289
5704 5701 5698 5693 5689 5685 5680 5676 5673 5670 5666 5659 5654 5652 5647 5641 5637 5631 5626 5624 5620 5613 5606 5599 5592 5586 5580 5574 5567 5560 5552 5546 5546 5547 5540 5529 5521 5513 5505 5499 5491 5482 5475 5467 5460 5455 5450 5444 5437 5430 5423 5416 5410 5404 5398 5393 5388 5383 5378 5372 5367 5362 5356 5349 5344 5337 5331 5326 5320 5316 5313 5311 5309 5306 5303 5301 5299 5296 5294 5293 5291 5290 5289 5287 5285 5283
5702 5698 5695 5691 5686 5682 5677 5673 5669 5665 5661 5655 5650 5647 5642 5637 5632 5627 5621 5618 5613 5606 5598 5591 5584 5578 5571 5564 5556 5549 5541 5533 5530 5533 5529 5522 5516 5509 5499 5492 5486 5479 5472 5464 5455 5448 5442 5435 5428 5421 5414 5407 5400 5394 5387 5382 5378 5373 5367 5362 5358 5353 5347 5341 5336 5330 5323 5318 5313 5308 5305 5303 5301 5299 5297 5295 5293 5290 5288 5286 5285 5284 5283 5281 5280 5278
5699 5695 5691 5687 5683 5679 5674 5671 5667 5662 5657 5652 5647 5643 5638 5632 5626 5619 5613 5610 5607 5602 5593 5583 5575 5569 5562 5556 5549 5542 5535 5525 5517 5516 5514 5508 5503 5498 5490 5480 5473 5466 5459 5452 5444 5436 5430 5424 5416 5408 5402 5395 5388 5383 5377 5371 5367 5362 5357 5352 5347 5342 5338 5333 5327 5321 5315 5310 5305 5301 5297 5295 5293 5291 5290 5288 5286 5284 5281 5280 5278 5277 5276 5275 5274 5272
5694 5691 5687 5683 5679 5675 5671 5667 5663 5657 5652 5648 5642 5636 5630 5626 5621 5614 5606 5600 5595 5592 5587 5579 5570 5562 5555 5550 5544 5538 5532 5524 5513 5506 5501 5494 5488 5483 5477 5469 5460 5453 5445 5437 5429 5420 5413 5409 5403 5395 5388 5381 5375 5369 5364 5360 5357 5352 5347 5342 5337 5332 5328 5324 5318 5313 5307 5302 5297 5293 5290 5287 5285 5283 5282 5281 5279 5277 5275 5273 5272 5271 5270 5270 5268 5267
5689 5685 5682 5678 5674 5670 5667 5663 5657 5651 5647 5643 5637 5630 5622 5616 5612 5607 5600 5594 5586 5581 5577 5572 5565 5558 5550 5545 5540 5533 5526 5520 5512 5502 5495 5487 5478 5470 5463 5455 5447 5439 5432 5425 5417 5407 5398 5392 5389 5383 5377 5371 5364 5358 5353 5348 5345 5342 5337 5332 5326 5322 5319 5314 5309 5304 5299 5294 5289 5286 5283 5280 5278 5276 5275 5274 5272 5270 5268 5267 5266 5265 5264 5264 5263 5262
5684 5681 5677 5673 5669 5665 5661 5657 5650 5645 5641 5636 5631 5625 5617 5609 5603 5598 5593 5590 5584 5576 5569 5565 5561 5554 5544 5536 5531 5525 5517 5510 5503 5495 5486 5478 5470 5460 5452 5443 5434 5425 5417 5409 5402 5393 5384 5377 5374 5370 5366 5360 5353 5348 5342 5337 5334 5331 5326 5321 5316 5312 5309 5305 5300 5295 5291 5286 5281 5278 5276 5273 5271 5269 5268 5267 5265 5264 5262 5261 5260 5259 5258 5258 5257 5256
5680 5676 5672 5668 5664 5660 5657 5652 5645 5639 5636 5630 5623 5618 5613 5606 5599 5591 5586 5583 5580 5574 5566 5560 5556 5550 5540 5528 5520 5513 5507 5498 5490 5482 5473 5465 5458 5449 5439 5431 5421 5411 5402 5393 5385 5377 5369 5362 5357 5355 5353 5348 5342 5335 5330 5325 5321 5319 5315 5310 5305 5302 5299 5295 5291 5286 5282 5278 5274 5271 5269 5267 5265 5263 5261 5260 5258 5257 5256 5255 5254 5253 5253 5252 5252 5251
5676 5672 5668 5664 5660 5656 5652 5647 5641 5635 5631 5626 5619 5612 5608 5604 5598 5590 5583 5577 5573 5568 5560 5552 5546 5540 5532 5521 5510 5502 5495 5487 5478 5470 5461 5452 5444 5435 5425 5415 5405 5396 5387 5378 5370 5362 5354 5347 5342 5337 5336 5334 5329 5322 5317 5312 5309 5307 5304 5299 5295 5292 5289 5286 5282 5278 5273 5269 5266 5264 5262 5260 5258 5256 5254 5253 5251 5250 5249 5248 5248 5247 5247 5247 5246 5245
5672 5668 5664 5660 5656 5653 5648 5642 5637 5633 5629 5624 5618 5609 5603 5600 5595 5588 5582 5576 5568 5561 5552 5542 5534 5527 5519 5509 5498 5489 5482 5475 5465 5457 5448 5439 5430 5421 5410 5400 5390 5381 5372 5363 5355 5346 5339 5332 5327 5322 5320 5319 5316 5309 5304 5300 5296 5294 5292 5288 5285 5282 5279 5276 5272 5269 5265 5261 5259 5257 5255 5254 5251 5249 5247 5246 5245 5244 5243 5243 5242 5242 5242 5241 5241 5240
5668 5664 5660 5655 5650 5648 5645 5639 5633 5628 5623 5619 5614 5609 5603 5597 5592 5584 5575 5568 5560 5552 5543 5534 5526 5518 5511 5502 5490 5479 5470 5462 5452 5442 5434 5426 5416 5407 5396 5385 5374 5365 5356 5347 5339 5330 5322 5315 5310 5305 5302 5302 5300 5296 5292 5288 5285 5282 5280 5277 5274 5272 5269 5266 5263 5260 5257 5254 5251 5250 5249 5248 5245 5243 5241 5240 5240 5239 5238 5238 5237 5237 5236 5236 5236 5235
5664 5659 5655 5651 5646 5641 5638 5633 5628 5625 5620 5614 5608 5603 5597 5591 5585 5577 5568 5559 5551 5544 5537 5529 5521 5511 5503 5494 5483 5470 5459 5450 5440 5428 5419 5411 5402 5392 5381 5369 5358 5348 5339 5330 5321 5313 5306 5299 5293 5288 5285 5284 5283 5282 5279 5277 5274 5270 5268 5266 5264 5261 5259 5257 5254 5251 5248 5246 5244 5243 5242 5241 5240 5238 5237 5236 5235 5234 5233 5233 5232 5231 5231 5231 5230 5230
5658 5654 5649 5645 5642 5637 5632 5626 5622 5620 5617 5610 5601 5593 5587 5580 5575 5570 5562 5555 5547 5540 5532 5526 5518 5508 5496 5485 5475 5463 5451 5442 5431 5419 5408 5399 5388 5377 5365 5353 5342 5331 5321 5312 5304 5296 5289 5283 5278 5274 5271 5269 5268 5267 5266 5265 5263 5260 5257 5255 5253 5252 5250 5247 5245 5242 5240 5238 5236 5236 5236 5235 5234 5232 5232 5231 5230 5229 5229 5228 5227 5226 5226 5226 5225 5225
5653 5649 5644 5639 5636 5632 5626 5618 5610 5605 5604 5600 5593 5586 5580 5574 5569 5564 5558 5550 5543 5535 5525 5516 5509 5501 5491 5480 5468 5456 5444 5435 5426 5414 5403 5392 5380 5366 5353 5339 5327 5317 5307 5298 5289 5282 5276 5271 5267 5263 5259 5257 5256 5255 5254 5254 5252 5250 5247 5245 5244 5242 5240 5238 5236 5234 5232 5231 5230 5229 5230 5229 5228 5226 5226 5226 5225 5224 5224 5223 5222 5221 5221 5221 5220 5220
5647 5642 5637 5632 5627 5623 5618 5612 5605 5598 5594 5591 5587 5581 5576 5570 5565 5560 5554 5546 5538 5529 5518 5507 5496 5488 5479 5471 5461 5448 5436 5426 5416 5404 5393 5382 5370 5356 5343 5330 5318 5307 5297 5288 5280 5272 5266 5262 5258 5255 5251 5249 5248 5246 5245 5244 5242 5240 5238 5237 5235 5233 5231 5229 5227 5226 5225 5224 5223 5223 5224 5223 5222 5221 5221 5220 5220 5219 5219 5218 5217 5217 5216 5216 5215 5215